Location: Brede
(50.9167°N, 0.6000°E)
Time: 18:57:31
(UTC+00:00)

H-2A R/B - Pass Details

Date: 08 August 2020
Orbit: 578 x 654 km, 98.5° (Epoch: 24 September)

Event Time Altitude Azimuth Distance (km) Brightness Sun altitude
Rises 02:25:38 0° 134° (SE) 2,803 5.3 -16.2°
Reaches altitude 10° 02:28:00 10° 123° (ESE) 1,901 4.6 -15.9°
Maximum altitude 02:31:31 28° 64° (ENE) 1,099 4.0 -15.6°
Drops below altitude 10° 02:35:03 10° 5° (N) 1,906 5.4 -15.3°
Sets 02:37:25 0° 354° (N) 2,812 6.2 -15.0°
